Overview Statistics Trail Chart Weather Telemetry Raw packets
 

This is the latest recevied weather packets stored in our database for station/object 4S6DRJ-13. If no packets are shown the sender has not sent any weather packets the latest 10 day(s).

<< 202 203 204 205 206 207 208 >>
Time Temp. Humidity Pressure Rain* Wind** Luminosity Snow
1788165790 31.11° C 70% 1007.4 hPa 0 mm 3.58 m/s, 214° 1113 W/m² -
1788165729 31.11° C 72% 1007.4 hPa 0 mm 2.24 m/s, 348° 490 W/m² -
1788165668 31.11° C 73% 1007.3 hPa 0 mm 1.34 m/s, 264° 1121 W/m² -
1788165607 31.11° C 72% 1007.3 hPa 0 mm 2.68 m/s, 134° 423 W/m² -
1788165546 31.11° C 72% 1007.4 hPa 0 mm 1.79 m/s, 269° 607 W/m² -
1788165485 31.11° C 71% 1007.2 hPa 0 mm 1.34 m/s, 151° 346 W/m² -
1788165424 31.11° C 71% 1007.3 hPa 0 mm 1.34 m/s, 245° 362 W/m² -
1788165378 31.11° C 70% 1007.5 hPa 0 mm 1.79 m/s, 127° 367 W/m² -
1788165303 31.11° C 72% 1007.4 hPa 0 mm 1.79 m/s, 236° 427 W/m² -
1788165241 31.11° C 72% 1007.2 hPa 0 mm 1.79 m/s, 144° 925 W/m² -
1788165180 30.56° C 72% 1007.3 hPa 0 mm 0.89 m/s, 181° 403 W/m² -
1788165119 30.56° C 72% 1007.4 hPa 0 mm 2.68 m/s, 319° 999 W/m² -
1788165058 30.56° C 71% 1007.3 hPa 0 mm 0.89 m/s, 295° 270 W/m² -
1788164997 30.56° C 70% 1007.2 hPa 0 mm 2.68 m/s, 319° 284 W/m² -
1788164936 30.56° C 71% 1007.3 hPa 0 mm 1.79 m/s, 276° 349 W/m² -
1788164875 30.56° C 70% 1007.5 hPa 0 mm 2.68 m/s, 98° 546 W/m² -
1788164814 31.11° C 70% 1007.4 hPa 0 mm 2.68 m/s, 347° 500 W/m² -
1788164753 31.11° C 70% 1007.5 hPa 0 mm 2.24 m/s, 255° 1119 W/m² -
1788164692 31.11° C 71% 1007.4 hPa 0 mm 1.79 m/s, 174° 1125 W/m² -
1788164631 31.11° C 70% 1007.5 hPa 0 mm 1.34 m/s, 267° 376 W/m² -
1788164570 30.56° C 70% 1007.7 hPa 0 mm 2.24 m/s, 322° 426 W/m² -
1788164509 30.56° C 71% 1007.3 hPa 0 mm 2.24 m/s, 226° 370 W/m² -
1788164448 30.56° C 71% 1007.6 hPa 0 mm 2.68 m/s, 252° 1124 W/m² -
1788164387 30.56° C 71% 1007.5 hPa 0 mm 1.79 m/s, 229° 1127 W/m² -
1788164326 30.56° C 71% 1007.5 hPa 0 mm 1.34 m/s, 207° 398 W/m² -

* Rain latest hour (hover to see other rain measurements)
** Current wind speed in m/s (hover to see current wind gust speed)